timestamp,surface_pressure_avg,surface_temp_avg,battery_voltage,lat,long
2019-03-07 00:00:00+00:00,386.488,-1.2,12.89,47.84626,-54.09684
2019-03-07 00:10:00+00:00,401.0712,-1.15,12.81,47.84626,-54.09684
2019-03-07 00:20:00+00:00,391.8479,-1.2,12.89,47.84626,-54.09684
2019-03-07 00:30:00+00:00,377.5179,-1.2,12.89,47.84626,-54.09684
2019-03-07 00:40:00+00:00,389.7246,-1.16,12.97,47.84626,-54.09684
2019-03-07 00:50:00+00:00,389.8612,-1.13,12.97,47.84626,-54.09684
2019-03-07 01:00:00+00:00,377.8997,-1.2,12.89,47.84626,-54.09684
2019-03-07 01:10:00+00:00,365.218,-1.2,12.81,47.84626,-54.09684
2019-03-07 01:20:00+00:00,368.6562,-1.15,12.89,47.84626,-54.09684
2019-03-07 01:30:00+00:00,368.543,-1.12,12.89,47.84626,-54.09684
2019-03-07 01:40:00+00:00,354.4396,-1.2,12.89,47.84626,-54.09684
2019-03-07 01:50:00+00:00,344.913,-1.16,12.89,47.84626,-54.09684
2019-03-07 02:00:00+00:00,344.2363,-1.11,12.81,47.84626,-54.09684
2019-03-07 02:10:00+00:00,344.628,-1.1,12.73,47.84626,-54.09684
2019-03-07 02:20:00+00:00,336.403,-1.1,12.89,47.84626,-54.09684
2019-03-07 02:30:00+00:00,328.033,-1.1,12.89,47.84626,-54.09684
2019-03-07 02:40:00+00:00,323.563,-1.1,12.89,47.84626,-54.09684
2019-03-07 02:50:00+00:00,319.9747,-1.1,12.89,47.84626,-54.09684
2019-03-07 03:00:00+00:00,315.228,-1.1,12.81,47.84626,-54.09684
2019-03-07 03:10:00+00:00,306.8713,-1.1,12.73,47.84626,-54.09684
2019-03-07 03:20:00+00:00,291.5447,-1.1,12.81,47.84626,-54.09684
2019-03-07 03:30:00+00:00,279.7947,-1.1,12.81,47.84626,-54.09684
2019-03-07 03:40:00+00:00,277.6214,-1.1,12.89,47.84626,-54.09684
2019-03-07 03:50:00+00:00,272.1514,-1.1,12.89,47.84626,-54.09684
2019-03-07 04:00:00+00:00,258.5448,-1.1,12.81,47.84626,-54.09684
2019-03-07 04:10:00+00:00,249.3798,-1.1,12.73,47.84626,-54.09684
2019-03-07 04:20:00+00:00,247.2514,-1.1,12.81,47.84626,-54.09684
2019-03-07 04:30:00+00:00,238.643,-1.1,12.81,47.84626,-54.09684
2019-03-07 04:40:00+00:00,225.0948,-1.1,12.81,47.84626,-54.09684
2019-03-07 04:50:00+00:00,226.2481,-1.1,12.81,47.84626,-54.09684
2019-03-07 05:00:00+00:00,228.2014,-1.1,12.73,47.84626,-54.09684
2019-03-07 05:10:00+00:00,218.9814,-1.1,12.65,47.84626,-54.09684
2019-03-07 05:20:00+00:00,209.3597,-1.1,12.73,47.84626,-54.09684
2019-03-07 05:30:00+00:00,210.4414,-1.1,12.73,47.84626,-54.09684
2019-03-07 05:40:00+00:00,215.6848,-1.1,12.81,47.84626,-54.09684
2019-03-07 05:50:00+00:00,214.5964,-1.1,12.81,47.84626,-54.09684
2019-03-07 06:00:00+00:00,216.3331,-1.09,12.73,47.84626,-54.09684
2019-03-07 06:10:00+00:00,219.963,-1.05,12.65,47.84626,-54.09684
2019-03-07 06:20:00+00:00,218.5581,-1.01,12.73,47.84626,-54.09684
2019-03-07 06:30:00+00:00,215.1181,-1.0,12.73,47.84626,-54.09684
2019-03-07 06:40:00+00:00,214.3632,-1.01,12.73,47.84626,-54.09684
2019-03-07 06:50:00+00:00,216.703,-1.01,12.81,47.84626,-54.09684
2019-03-07 07:00:00+00:00,218.3831,-1.02,12.65,47.84626,-54.09684
2019-03-07 07:10:00+00:00,224.7764,-1.04,12.65,47.84626,-54.09684
2019-03-07 07:20:00+00:00,229.1947,-1.05,12.73,47.84626,-54.09684
2019-03-07 07:30:00+00:00,225.1198,-1.03,12.73,47.84626,-54.09684
2019-03-07 07:40:00+00:00,229.1714,-1.03,12.73,47.84626,-54.09684
2019-03-07 07:50:00+00:00,245.1314,-1.03,12.73,47.84626,-54.09684
2019-03-07 08:00:00+00:00,252.5864,-1.01,12.65,47.84626,-54.09684
2019-03-07 08:10:00+00:00,247.9247,-1.0,12.65,47.84626,-54.09684
2019-03-07 08:20:00+00:00,253.3381,-1.0,12.65,47.84626,-54.09684
2019-03-07 08:30:00+00:00,267.9214,-1.0,12.73,47.84626,-54.09684
2019-03-07 08:40:00+00:00,270.7781,-1.0,12.73,47.84626,-54.09684
2019-03-07 08:50:00+00:00,274.0214,-1.0,12.73,47.84626,-54.09684
2019-03-07 09:00:00+00:00,275.0648,-1.0,12.65,47.84626,-54.09684
2019-03-07 09:10:00+00:00,280.0914,-1.0,12.57,47.84626,-54.09684
2019-03-07 09:20:00+00:00,283.4764,-1.0,12.65,47.84626,-54.09684
2019-03-07 09:30:00+00:00,287.9647,-1.0,12.65,47.84626,-54.09684
2019-03-07 09:40:00+00:00,294.563,-1.0,12.73,47.84626,-54.09684
2019-03-07 09:50:00+00:00,302.013,-0.97,12.73,47.84626,-54.09684
2019-03-07 10:00:00+00:00,306.1263,-0.96,12.65,47.84626,-54.09684
2019-03-07 10:10:00+00:00,313.263,-1.0,12.57,47.84626,-54.09684
2019-03-07 10:20:00+00:00,323.5779,-0.99,12.81,47.84626,-54.09684
2019-03-07 10:30:00+00:00,327.7196,-1.0,13.29,47.84626,-54.09684
2019-03-07 10:40:00+00:00,332.903,-1.1,14.24,47.84626,-54.09684
2019-03-07 10:50:00+00:00,346.1696,-1.2,15.11,47.84626,-54.09684
2019-03-07 11:00:00+00:00,353.9846,-1.2,15.04,47.84626,-54.09684
2019-03-07 11:10:00+00:00,352.4846,-1.3,16.15,47.84626,-54.09684
2019-03-07 11:20:00+00:00,361.7179,-1.3,16.95,47.84626,-54.09684
2019-03-07 11:30:00+00:00,373.8713,-1.3,16.15,47.84626,-54.09684
2019-03-07 11:40:00+00:00,372.3979,-1.3,15.04,47.84626,-54.09684
2019-03-07 11:50:00+00:00,369.6597,-1.3,14.8,47.84626,-54.09684
2019-03-07 12:00:00+00:00,377.1913,-1.3,14.88,47.84626,-54.09684
2019-03-07 12:10:00+00:00,379.3846,-1.3,15.83,47.84626,-54.09684
2019-03-07 12:20:00+00:00,373.9296,-1.3,16.79,47.84626,-54.09684
2019-03-07 12:30:00+00:00,370.6896,-1.3,16.31,47.84626,-54.09684
2019-03-07 12:40:00+00:00,371.2396,-1.3,15.11,47.84626,-54.09684
2019-03-07 12:50:00+00:00,368.093,-1.27,14.88,47.84626,-54.09684
2019-03-07 13:00:00+00:00,366.2679,-1.23,14.88,47.84626,-54.09684
2019-03-07 13:10:00+00:00,362.7513,-1.2,17.03,47.84626,-54.09684
2019-03-07 13:20:00+00:00,358.8913,-1.11,17.11,47.84626,-54.09684
2019-03-07 13:30:00+00:00,354.1579,-1.04,16.39,47.84626,-54.09684
2019-03-07 13:40:00+00:00,347.9464,-1.0,15.91,47.84626,-54.09684
2019-03-07 13:50:00+00:00,346.2947,-0.9,15.67,47.84626,-54.09684
2019-03-07 14:00:00+00:00,345.6863,-0.9,15.44,47.84626,-54.09684
2019-03-07 14:10:00+00:00,344.2713,-0.9,15.44,47.84626,-54.09684
2019-03-07 14:20:00+00:00,342.0012,-0.9,15.51,47.84626,-54.09684
2019-03-07 14:30:00+00:00,334.8946,-0.84,14.88,47.84626,-54.09684
2019-03-07 14:40:00+00:00,327.4363,-0.81,14.72,47.84626,-54.09684
2019-03-07 14:50:00+00:00,324.6846,-0.8,14.8,47.84626,-54.09684
2019-03-07 15:00:00+00:00,317.8896,-0.8,14.96,47.84626,-54.09684
2019-03-07 15:10:00+00:00,305.903,-0.8,15.27,47.84626,-54.09684
2019-03-07 15:20:00+00:00,299.4529,-0.8,15.35,47.84626,-54.09684
2019-03-07 15:30:00+00:00,297.0597,-0.8,15.44,47.84626,-54.09684
2019-03-07 15:40:00+00:00,284.6697,-0.8,15.2,47.84626,-54.09684
2019-03-07 15:50:00+00:00,266.1348,-0.9,14.88,47.84626,-54.09684
2019-03-07 16:00:00+00:00,260.4514,-0.9,14.72,47.84626,-54.09684
2019-03-07 16:10:00+00:00,254.0014,-0.88,14.64,47.84626,-54.09684
2019-03-07 16:20:00+00:00,238.6081,-0.89,15.04,47.84626,-54.09684
2019-03-07 16:30:00+00:00,227.8864,-0.86,15.11,47.84626,-54.09684
2019-03-07 16:40:00+00:00,226.4131,-0.83,15.04,47.84626,-54.09684
2019-03-07 16:50:00+00:00,215.6398,-0.8,14.96,47.84626,-54.09684
2019-03-07 17:00:00+00:00,200.4631,-0.8,14.96,47.84626,-54.09684
2019-03-07 17:10:00+00:00,200.5997,-0.78,14.88,47.84626,-54.09684
2019-03-07 17:20:00+00:00,202.6481,-0.7,14.96,47.84626,-54.09684
2019-03-07 17:30:00+00:00,193.8514,-0.69,14.96,47.84626,-54.09684
2019-03-07 17:40:00+00:00,189.3431,-0.62,14.96,47.84626,-54.09684
2019-03-07 17:50:00+00:00,192.4948,-0.6,14.88,47.84626,-54.09684
2019-03-07 18:00:00+00:00,192.4331,-0.6,14.8,47.84626,-54.09684
2019-03-07 18:10:00+00:00,191.9048,-0.6,14.64,47.84626,-54.09684
2019-03-07 18:20:00+00:00,189.8914,-0.57,14.72,47.84626,-54.09684
2019-03-07 18:30:00+00:00,187.0665,-0.52,14.72,47.84626,-54.09684
2019-03-07 18:40:00+00:00,187.4632,-0.51,14.8,47.84626,-54.09684
2019-03-07 18:50:00+00:00,188.4581,-0.5,14.72,47.84626,-54.09684
2019-03-07 19:00:00+00:00,189.5731,-0.5,14.64,47.84626,-54.09684
2019-03-07 19:10:00+00:00,188.8831,-0.5,14.56,47.84626,-54.09684
2019-03-07 19:20:00+00:00,192.6681,-0.5,14.64,47.84626,-54.09684
2019-03-07 19:30:00+00:00,203.4948,-0.5,14.64,47.84626,-54.09684
2019-03-07 19:40:00+00:00,201.9298,-0.5,14.56,47.84626,-54.09684
2019-03-07 19:50:00+00:00,202.8198,-0.5,14.56,47.84626,-54.09684
2019-03-07 20:00:00+00:00,221.1698,-0.51,14.48,47.84626,-54.09684
2019-03-07 20:10:00+00:00,223.2148,-0.51,14.32,47.84626,-54.09684
2019-03-07 20:20:00+00:00,215.1831,-0.55,14.32,47.84626,-54.09684
2019-03-07 20:30:00+00:00,227.1065,-0.6,14.32,47.84626,-54.09684
2019-03-07 20:40:00+00:00,243.4097,-0.6,14.32,47.84626,-54.09684
2019-03-07 20:50:00+00:00,240.4364,-0.6,14.24,47.84626,-54.09684
2019-03-07 21:00:00+00:00,241.1381,-0.6,14.08,47.84626,-54.09684
2019-03-07 21:10:00+00:00,256.7198,-0.6,13.92,47.84626,-54.09684
2019-03-07 21:20:00+00:00,264.7347,-0.61,13.92,47.84626,-54.09684
2019-03-07 21:30:00+00:00,263.8114,-0.61,13.84,47.84626,-54.09684
2019-03-07 21:40:00+00:00,269.6463,-0.61,13.84,47.84626,-54.09684
2019-03-07 21:50:00+00:00,276.8647,-0.65,13.76,47.84626,-54.09684
2019-03-07 22:00:00+00:00,274.6397,-0.7,13.68,47.84626,-54.09684
2019-03-07 22:10:00+00:00,277.0748,-0.66,13.44,47.84626,-54.09684
2019-03-07 22:20:00+00:00,290.6313,-0.7,13.44,47.84626,-54.09684
2019-03-07 22:30:00+00:00,298.7247,-0.7,13.44,47.84626,-54.09684
2019-03-07 22:40:00+00:00,297.783,-0.7,13.37,47.84626,-54.09684
2019-03-07 22:50:00+00:00,301.5947,-0.7,13.37,47.84626,-54.09684
2019-03-07 23:00:00+00:00,315.5731,-0.7,13.29,47.84626,-54.09684
2019-03-07 23:10:00+00:00,322.0013,-0.7,13.13,47.84626,-54.09684
2019-03-07 23:20:00+00:00,321.4097,-0.7,13.13,47.84626,-54.09684
2019-03-07 23:30:00+00:00,327.548,-0.7,13.05,47.84626,-54.09684
2019-03-07 23:40:00+00:00,332.9696,-0.7,13.05,47.84626,-54.09684
2019-03-07 23:50:00+00:00,333.7513,-0.7,13.05,47.84626,-54.09684
